Tracking 30313 objects as of 21-Apr-2025
HD Live streaming from Space Station
objects crossing your sky now

STARLINK-5839

Track STARLINK-5839 now!
10-day predictions
STARLINK-5839 is classified as:


NORAD ID: 57051
Int'l Code: 2023-088D
Perigee: 563.2 km
Apogee: 569.1 km
Inclination: 43.0 °
Period: 95.8 minutes
Semi major axis: 6937 km
RCS: Unknown
Launch date: June 22, 2023
Source: United States (US)
Launch site: AIR FORCE WESTERN TEST RANGE (AFWTR)
Your satellite tracking list
Your tracking list is empty




NASA's NSSDC Master Catalog

Two Line Element Set (TLE):
1 57051U 23088D   25110.98337978  .00001469  00000-0  12381-3 0  9990
2 57051  43.0051  61.1986 0004285 153.4008 206.7055 15.02555581101828
Source of the keplerian elements: AFSPC